This is the latest recevied weather packets stored in our database for station/object SP9POL-3. If no packets are shown the sender has not sent any weather packets the latest 10 day(s).
| Time | Temp. | Humidity | Pressure | Rain* | Wind** | Luminosity | Snow |
|---|---|---|---|---|---|---|---|
| 1777261122 | 2.78° C | 38% | 1021.8 hPa | - | - | - | - |
| 1777259442 | 2.78° C | 35% | 1021.9 hPa | - | - | - | - |
| 1777257761 | 2.78° C | 36% | 1022.1 hPa | - | - | - | - |
| 1777256081 | 2.22° C | 37% | 1022.1 hPa | - | - | - | - |
| 1777254401 | 2.22° C | 37% | 1022.3 hPa | - | - | - | - |
| 1777252721 | 2.22° C | 37% | 1022.4 hPa | - | - | - | - |
| 1777251041 | 2.22° C | 36% | 1022.5 hPa | - | - | - | - |
| 1777249361 | 2.22° C | 35% | 1022.6 hPa | - | - | - | - |
| 1777247681 | 2.78° C | 35% | 1022.7 hPa | - | - | - | - |
| 1777246001 | 3.33° C | 35% | 1022.7 hPa | - | - | - | - |
| 1777244321 | 3.33° C | 33% | 1022.7 hPa | - | - | - | - |
| 1777242640 | 3.89° C | 34% | 1022.8 hPa | - | - | - | - |
| 1777240960 | 3.89° C | 33% | 1022.9 hPa | - | - | - | - |
| 1777239280 | 4.44° C | 31% | 1022.9 hPa | - | - | - | - |
| 1777237600 | 5° C | 29% | 1022.9 hPa | - | - | - | - |
| 1777235920 | 5° C | 28% | 1022.9 hPa | - | - | - | - |
| 1777234240 | 6.11° C | 25% | 1022.7 hPa | - | - | - | - |
| 1777232560 | 6.11° C | 24% | 1022.5 hPa | - | - | - | - |
| 1777230880 | 6.11° C | 20% | 1022.3 hPa | - | - | - | - |
| 1777229199 | 6.67° C | 19% | 1022.1 hPa | - | - | - | - |
| 1777227519 | 7.22° C | 19% | 1021.8 hPa | - | - | - | - |
| 1777225839 | 7.78° C | 19% | 1021.3 hPa | - | - | - | - |
| 1777224159 | 7.78° C | 17% | 1020.8 hPa | - | - | - | - |
| 1777222479 | 8.89° C | 18% | 1020.5 hPa | - | - | - | - |
| 1777220798 | 9.44° C | 16% | 1020.2 hPa | - | - | - | - |
* Rain since midnight (hover to see other rain measurements)
** Current wind speed in m/s (hover to see current wind gust speed)